DECAYED

STARLINK-32730, 62447 (Decayed)

Orbit data source: Space-Track

STARLINK-32730, 62447 was a payload satellite owned by SpaceX/Seattle (US) in LEO that was launched on Sun, 29 Dec 2024 UTC via an FALCON 9 launch vehicle from the Air Force Western Test Range (AFWTR). Payload-class satellites include a variety of spacecraft equipped with specific instruments for various scientific and technological missions. These include communications satellites like Starlink; space stations such as the ISS; scientific satellites like the Hubble; Earth observation satellites from companies like Planet Labs, Umbra, and HawkEye 360; GPS; miniature CubeSats for education and research; and military/defense satellites.

Not visible in the next 10 days
Identifier
62447, 2024-251R
Orbit
Decayed
Country
Flag of USUS
Related business
Manufacturer
SpaceX/Seattle
Mission
Decayed Commercial Communications
Bus & Motor
STARLINK V2M, Unknown motor
Mass
730 kg wet, ~700 kg dry
Launch date (UTC)
2024-12-29 (1 year ago)
Launch vehicle
FALCON 9
Launch site
Air Force Western Test Range (AFWTR)
Object type
Payload
Rocket body
Debris
Shape & HBR
Box + 2 Pan, 17.7 m
Radar Cross Section
33.884 m², Large (>1 m²)

Expand to show TLE details & history
Last TLE update: 2 months ago

TLE from 2 months ago
0 STARLINK-32730
1 62447U 24251R   26123.34628212  .13619463  11876-4  31850-2 0  9998
2 62447  53.1526  73.6811 0010354 186.2744 173.8171 16.28871086 76422
Epoch: 2026-05-03T08:18Z
TLE epoch observation values (Epoch: 2026-05-03T08:18:38.775Z)
Latitude
-0.00003°
Longitude
87.76837°
Altitude
203.279 km
Speed
7.782 km/s
True Right ascension
04h 54m 43s
True Declination
0° 00' 00"
Sunlit
Object was in daylight at epoch
Visualization orbit readout
Latitude
Unknown
Longitude
Unknown
Altitude
Unknown
Speed
Unknown
Apparent Right ascension
Unknown
Apparent Declination
Unknown
Sunlit
N/A
Visualization observer readout
Local Sidereal Time
07:17:48
Azimuth
Unknown
Elevation
Unknown
Doppler factor
Unknown
Orbital elements
Apogee altitude
202.65 km
Perigee altitude
189.037 km
Semi-major axis
6,573.981 km
Eccentricity
0.00104
Inclination
53.1526°
RAAN
73.6811°
Arg. of periapsis
186.2744°
True anomaly
173.82986°
Mean anomaly
173.8171°
Eccentric anomaly
173.82348°
Mean motion
4.07193 °/min
Orbital period
88.41 mins
BSTAR
0.003185
Loading maneuver chart data...
Computing Atmospheric mass density...
Loading historical data...
Loading historical data...
Loading historical data...
Loading historical data...
Loading historical data...
Loading historical data...
Loading historical data...

Documentation

Showing up to 5 results
|